Weather History for Driggs, ID

Change the Weather History Date:

Monday, March 10, 2014

  Actual Average (KRXE) Record (KRXE)
Temperature  
Mean Temperature 36 °F 32 °F  
Max Temperature 43 °F 42 °F 53 °F (2012)
Min Temperature 28 °F 21 °F 4 °F (2006)
Degree Days  
Heating Degree Days 30 33  
Month to date heating degree days 355  
Since 1 July heating degree days 6328  
Cooling Degree Days 0 0  
Month to date cooling degree days 0  
Year to date cooling degree days 0  
Moisture  
Dew Point 30 °F    
Average Humidity 85    
Maximum Humidity 100    
Minimum Humidity 49    
Precipitation  
Precipitation 0.04 in 0.02 in 0.22 in (2007)
Month to date precipitation 0.27  
Year to date precipitation 1.84  
Sea Level Pressure  
Sea Level Pressure 29.87 in    
Wind  
Wind Speed 12 mph (SSW)    
Max Wind Speed 26 mph    
Max Gust Speed 30 mph    
Visibility 6 miles    
Events Fog , Rain , Snow    
T = Trace of Precipitation, MM = Missing Value Source: NWS Daily Summary

Daily Weather History Graph

Daily Weather History Graph

Search for Another Location

Airport:

Trip Planner

Search our weather history database for the weather conditions in past years. The results will help you decide how hot, cold, wet, or windy it might be!

Date:

Astronomy

Mar. 10, 2014 Rise Set
Actual Time 7:45 AM MDT 7:24 PM MDT
Civil Twilight 7:16 AM MDT 7:53 PM MDT
Nautical Twilight 6:43 AM MDT 8:26 PM MDT
Astronomical Twilight 6:09 AM MDT 9:00 PM MDT
Moon 2:03 PM MDT (3/10) 4:07 AM MDT (3/10)
Length of Visible Light 12h 36m
Length of Day
11h 39m
Waxing Gibbous, 70% of the Moon is Illuminated
Mar 10
Waxing Gibbous
Mar 16
Full
Mar 23
Last Quarter
Mar 30
New
Apr 7
First Quarter

Hourly Weather History & Observations

Time (MDT) Temp. Windchill Dew Point Humidity Pressure Visibility Wind Dir Wind Speed Gust Speed Precip Events Conditions
12:56 AM 38.8 °F 32.1 °F 30.0 °F 71% 30.04 in 10.0 mi South 10.4 mph - N/A   Mostly Cloudy
1:39 AM 39.2 °F 32.0 °F 30.2 °F 70% 30.12 in 9.0 mi South 11.5 mph - N/A   Overcast
1:56 AM 37.9 °F 32.1 °F 31.1 °F 76% 30.04 in 10.0 mi South 8.1 mph - N/A   Mostly Cloudy
2:40 AM 35.6 °F 29.9 °F 32.0 °F 87% 30.10 in 7.0 mi SSE 6.9 mph - N/A   Overcast
2:49 AM 37.4 °F 32.8 °F 32.0 °F 81% 30.09 in 8.0 mi SE 5.8 mph - N/A   Overcast
2:56 AM 36.9 °F 33.1 °F 32.9 °F 86% 30.01 in 9.0 mi SE 4.6 mph - N/A   Overcast
3:56 AM 36.9 °F 28.2 °F 32.0 °F 83% 29.98 in 7.0 mi South 13.8 mph - N/A   Overcast
4:56 AM 37.9 °F 28.2 °F 32.9 °F 82% 29.95 in 7.0 mi South 18.4 mph - 0.00 in Rain Light Rain
5:56 AM 36.0 °F 33.3 °F 32.9 °F 89% 29.94 in 10.0 mi SE 3.5 mph - 0.00 in   Mostly Cloudy
6:56 AM 36.0 °F 32.1 °F 32.0 °F 86% 29.89 in 10.0 mi East 4.6 mph - N/A   Mostly Cloudy
7:56 AM 37.9 °F 35.5 °F 32.0 °F 79% 29.86 in 10.0 mi SE 3.5 mph - N/A   Overcast
8:56 AM 36.0 °F 33.3 °F 31.1 °F 82% 29.85 in 10.0 mi East 3.5 mph - N/A   Partly Cloudy
9:56 AM 41.9 °F 38.2 °F 28.0 °F 58% 29.81 in 10.0 mi South 5.8 mph - N/A   Mostly Cloudy
10:56 AM 43.0 °F 37.7 °F 25.2 °F 49% 29.78 in 10.0 mi South 9.2 mph - N/A   Overcast
11:56 AM 43.0 °F 33.1 °F 26.1 °F 51% 29.78 in 10.0 mi SSW 26.5 mph 29.9 mph N/A   Mostly Cloudy
12:56 PM 39.9 °F 31.4 °F 29.1 °F 65% 29.80 in 10.0 mi SSW 16.1 mph - N/A   Mostly Cloudy
1:56 PM 37.9 °F 29.2 °F 31.1 °F 76% 29.78 in 8.0 mi SE 15.0 mph - 0.00 in   Overcast
2:12 PM 37.4 °F 28.9 °F 32.0 °F 81% 29.85 in 10.0 mi SE 13.8 mph - N/A   Overcast
2:56 PM 36.9 °F 29.6 °F 32.0 °F 83% 29.77 in 3.0 mi South 10.4 mph - 0.00 in   Overcast
3:16 PM 35.6 °F 26.6 °F 32.0 °F 87% 29.84 in 2.5 mi South 13.8 mph - 0.00 in   Overcast
3:37 PM 35.6 °F 27.1 °F 33.8 °F 93% 29.83 in 4.0 mi South 12.7 mph - 0.01 in   Overcast
3:56 PM 34.9 °F 25.7 °F 32.0 °F 89% 29.77 in 4.0 mi South 13.8 mph - 0.01 in   Overcast
4:42 PM 35.6 °F 27.1 °F 32.0 °F 87% 29.82 in 7.0 mi SE 12.7 mph - 0.01 in   Overcast
4:56 PM 34.9 °F 25.3 °F 32.0 °F 89% 29.74 in 5.0 mi SE 15.0 mph - 0.01 in   Overcast
5:06 PM 35.6 °F 26.6 °F 32.0 °F 87% 29.80 in 8.0 mi SE 13.8 mph - N/A   Overcast
5:56 PM 34.9 °F 24.6 °F 32.0 °F 89% 29.74 in 7.0 mi SE 17.3 mph - N/A   Overcast
6:19 PM 35.6 °F 24.8 °F 32.0 °F 87% 29.78 in 8.0 mi SSE 19.6 mph - N/A   Mostly Cloudy
6:45 PM 35.6 °F 27.1 °F 30.2 °F 81% 29.81 in 10.0 mi SW 12.7 mph - N/A   Mostly Cloudy
6:56 PM 36.0 °F 25.0 °F 30.0 °F 79% 29.76 in 9.0 mi SW 20.7 mph 24.2 mph N/A   Overcast
7:09 PM 35.6 °F 24.5 °F 30.2 °F 81% 29.82 in 2.5 mi SW 20.7 mph 25.3 mph 0.00 in Snow Light Snow
7:28 PM 35.6 °F 25.2 °F 28.4 °F 75% 29.82 in 5.0 mi SW 18.4 mph - 0.00 in Snow Light Snow
7:56 PM 34.0 °F 25.5 °F 29.1 °F 82% 29.78 in 5.0 mi South 11.5 mph - 0.00 in   Haze
8:29 PM 33.8 °F 22.2 °F 28.4 °F 81% 29.86 in 1.5 mi WSW 20.7 mph - 0.00 in Snow Light Snow
8:31 PM 33.8 °F 22.2 °F 28.4 °F 81% 29.86 in 1.0 mi WSW 20.7 mph - 0.00 in Snow Light Snow
8:35 PM 32.0 °F 20.1 °F 30.2 °F 93% 29.86 in 0.8 mi WSW 19.6 mph - 0.00 in Snow Light Snow
8:43 PM 32.0 °F 20.5 °F 30.2 °F 93% 29.86 in 1.0 mi WSW 18.4 mph - 0.00 in Snow Light Snow
8:56 PM 32.0 °F 21.6 °F 30.0 °F 92% 29.82 in 0.5 mi WSW 15.0 mph - 0.00 in Fog , Snow Snow
9:18 PM 30.2 °F 18.9 °F 30.2 °F 100% 29.86 in 0.2 mi WSW 16.1 mph - 0.01 in Fog , Snow Heavy Snow
9:56 PM 29.1 °F 15.4 °F 29.1 °F 100% 29.82 in 0.5 mi NW 23.0 mph - 0.01 in Fog , Snow Snow
10:22 PM 28.4 °F 16.2 °F 28.4 °F 100% 29.89 in 0.8 mi WNW 17.3 mph - 0.00 in Snow Light Snow
10:40 PM 28.4 °F 17.0 °F 28.4 °F 100% 29.90 in 0.5 mi WNW 15.0 mph - 0.00 in Fog , Snow Light Snow
10:56 PM 29.1 °F 17.1 °F 29.1 °F 100% 29.85 in 1.0 mi NW 17.3 mph - 0.00 in Snow Light Snow
11:00 PM 28.4 °F 16.2 °F 28.4 °F 100% 29.90 in 1.5 mi NW 17.3 mph - 0.01 in Snow Light Snow
11:10 PM 28.4 °F 17.0 °F 28.4 °F 100% 29.90 in 1.0 mi WNW 15.0 mph - 0.01 in Snow Light Snow
11:15 PM 28.4 °F 17.5 °F 28.4 °F 100% 29.90 in 1.5 mi West 13.8 mph - 0.01 in Snow Light Snow
11:20 PM 28.4 °F 18.0 °F 28.4 °F 100% 29.90 in 3.0 mi WNW 12.7 mph - 0.01 in Snow Light Snow
11:24 PM 28.4 °F 18.0 °F 28.4 °F 100% 29.90 in 7.0 mi WNW 12.7 mph - 0.01 in Snow Light Snow
11:35 PM 28.4 °F 21.2 °F 28.4 °F 100% 29.90 in 9.0 mi WNW 6.9 mph - 0.01 in Snow Light Snow
11:56 PM 29.1 °F 24.1 °F 28.0 °F 96% 29.85 in 6.0 mi NW 4.6 mph - 0.01 in Snow Light Snow